Location: Unspecified
(42.2730°N, 83.7130°W)
Time: 05:36:24
(UTC+00:00)

Cosmos 1937 Rocket - Pass Details

Date: 14 December 2025
Orbit: 743 x 775 km, 74.0° (Epoch: 20 January)

Event Time Altitude Azimuth Distance (km) Brightness Sun altitude
Rises 23:21:07 0° 188° (S) 3,199 7.1 -13.9°
Reaches altitude 10° 23:23:30 10° 185° (S) 2,273 6.3 -14.3°
Maximum altitude 23:28:34 62° 106° (ESE) 844 3.5 -15.2°
Enters shadow 23:32:45 15° 28° (NNE) 1,934 5.2 -15.9°
